Location: Strawberry
(45.6646°N, 111.9596°W)
Time: 21:49:47
(UTC+00:00)

Explorer 11/Cluster Stage 4 - Pass Details

Date: 07 October 2022
Orbit: 466 x 1248 km, 28.8° (Epoch: 28 November)

Event Time Altitude Azimuth Distance (km) Brightness Sun altitude
Rises 16:21:17 0° 211° (SSW) 4,044 10.3 25.7°
Reaches altitude 10° 16:25:39 10° 189° (S) 3,166 10.2 26.2°
Maximum altitude 16:29:36 15° 159° (SSE) 2,870 10.8 26.7°
Drops below altitude 10° 16:33:36 10° 129° (SE) 3,207 11.5 27.3°
Sets 16:38:05 0° 108° (ESE) 4,132 11.2 27.8°
